Weather History for Dutch Harbor, AK

Change the Weather History Date:

Sunday, March 23, 2014

  Actual Average Record
Temperature  
Mean Temperature 37 °F -  
Max Temperature 41 °F 40 °F 50 °F (1991)
Min Temperature 33 °F 29 °F 14 °F (1985)
Degree Days  
Heating Degree Days 28    
Moisture  
Dew Point 32 °F    
Average Humidity 81    
Maximum Humidity 93    
Minimum Humidity 70    
Precipitation  
Precipitation 0.00 in - - ()
Sea Level Pressure  
Sea Level Pressure 29.94 in    
Wind  
Wind Speed 5 mph (SSE)    
Max Wind Speed 12 mph    
Max Gust Speed -    
Visibility 10 miles    
Events      
Averages and records for this station are not official NWS values.
T = Trace of Precipitation, MM = Missing Value Source: NWS Daily Summary

Daily Weather History Graph

Daily Weather History Graph

Search for Another Location

Airport:

Trip Planner

Search our weather history database for the weather conditions in past years. The results will help you decide how hot, cold, wet, or windy it might be!

Date:

Astronomy

Mar. 23, 2014 Rise Set
Actual Time 9:00 AM AKDT 9:25 PM AKDT
Civil Twilight 8:25 AM AKDT 10:01 PM AKDT
Nautical Twilight 7:43 AM AKDT 10:43 PM AKDT
Astronomical Twilight 6:58 AM AKDT 11:28 PM AKDT
Moon 4:37 AM AKDT (3/23) 1:11 PM AKDT (3/23)
Length of Visible Light 13h 36m
Length of Day
12h 25m
Waning Gibbous, 53% of the Moon is Illuminated
Mar 23
Waning Gibbous
Mar 23
Last Quarter
Mar 30
New
Apr 7
First Quarter
Apr 14
Full

Hourly Weather History & Observations

Time (AKDT) Temp. Windchill Dew Point Humidity Pressure Visibility Wind Dir Wind Speed Gust Speed Precip Events Conditions
12:18 AM 35.6 °F - 32.0 °F 87% 30.03 in 10.0 mi Calm Calm - N/A   Overcast
12:56 AM 34.0 °F - 30.9 °F 89% 30.03 in 10.0 mi Calm Calm - N/A   Overcast
1:54 AM 33.8 °F 30.8 °F 30.2 °F 87% 29.99 in 10.0 mi South 3.5 mph - N/A   Overcast
1:56 AM 34.0 °F 29.8 °F 30.0 °F 85% 30.01 in 10.0 mi South 4.6 mph - N/A   Overcast
2:38 AM 33.8 °F 29.6 °F 30.2 °F 87% 29.99 in 10.0 mi SSW 4.6 mph - N/A   Overcast
2:56 AM 34.0 °F 28.8 °F 30.0 °F 85% 30.01 in 10.0 mi West 5.8 mph - N/A   Overcast
3:56 AM 34.0 °F - 30.0 °F 85% 30.01 in 10.0 mi Calm Calm - N/A   Overcast
4:56 AM 34.0 °F 29.8 °F 28.9 °F 82% 30.00 in 10.0 mi North 4.6 mph - N/A   Overcast
5:56 AM 35.1 °F 32.2 °F 28.9 °F 78% 29.99 in 10.0 mi NW 3.5 mph - N/A   Overcast
6:15 AM 33.8 °F - 30.2 °F 87% 29.96 in 10.0 mi Calm Calm - N/A   Overcast
6:56 AM 35.1 °F 30.1 °F 30.0 °F 82% 29.97 in 10.0 mi West 5.8 mph - N/A   Overcast
7:56 AM 35.1 °F - 28.0 °F 76% 29.96 in 10.0 mi Calm Calm - N/A   Overcast
8:38 AM 35.6 °F 32.8 °F 28.4 °F 75% 29.93 in 10.0 mi Variable 3.5 mph - N/A   Overcast
8:39 AM 35.6 °F 32.8 °F 28.4 °F 75% 29.93 in 10.0 mi NE 3.5 mph - N/A   Overcast
8:56 AM 35.1 °F 32.2 °F 30.0 °F 82% 29.94 in 10.0 mi East 3.5 mph - N/A   Overcast
9:18 AM 35.6 °F 31.7 °F 30.2 °F 81% 29.92 in 10.0 mi ESE 4.6 mph - N/A   Overcast
9:30 AM 35.6 °F 32.8 °F 30.2 °F 81% 29.92 in 10.0 mi Variable 3.5 mph - N/A   Overcast
9:56 AM 35.1 °F 29.3 °F 32.0 °F 89% 29.93 in 10.0 mi SSE 6.9 mph - N/A   Overcast
9:58 AM 35.6 °F 29.2 °F 32.0 °F 87% 29.91 in 10.0 mi SSE 8.1 mph - N/A   Overcast
10:11 AM 35.6 °F 29.9 °F 32.0 °F 87% 29.91 in 10.0 mi SSE 6.9 mph - N/A   Overcast
10:56 AM 36.0 °F 29.6 °F 33.1 °F 89% 29.92 in 10.0 mi SSE 8.1 mph - N/A   Overcast
11:08 AM 35.6 °F 29.9 °F 33.8 °F 93% 29.90 in 10.0 mi South 6.9 mph - N/A   Overcast
11:46 AM 37.4 °F 31.4 °F 33.8 °F 87% 29.90 in 10.0 mi South 8.1 mph - N/A   Overcast
11:56 AM 37.9 °F 32.7 °F 33.1 °F 83% 29.91 in 10.0 mi South 6.9 mph - N/A   Overcast
12:08 PM 37.4 °F 32.1 °F 33.8 °F 87% 29.90 in 10.0 mi South 6.9 mph - N/A   Overcast
12:56 PM 39.0 °F 34.0 °F 33.1 °F 79% 29.92 in 10.0 mi SE 6.9 mph - N/A   Overcast
1:56 PM 39.9 °F 33.9 °F 33.1 °F 77% 29.92 in 10.0 mi SE 9.2 mph - N/A   Overcast
2:02 PM 39.2 °F 35.9 °F 33.8 °F 81% 29.90 in 10.0 mi South 4.6 mph - N/A   Overcast
2:22 PM 41.0 °F 35.2 °F 33.8 °F 76% 29.90 in 10.0 mi SE 9.2 mph - N/A   Overcast
2:56 PM 39.9 °F 33.4 °F 33.1 °F 77% 29.91 in 10.0 mi ESE 10.4 mph - N/A   Overcast
2:58 PM 39.2 °F 32.0 °F 33.8 °F 81% 29.89 in 10.0 mi ESE 11.5 mph - N/A   Overcast
3:56 PM 41.0 °F 35.2 °F 32.0 °F 70% 29.91 in 10.0 mi SE 9.2 mph - N/A   Overcast
4:56 PM 39.9 °F 34.5 °F 33.1 °F 77% 29.91 in 10.0 mi ESE 8.1 mph - N/A   Overcast
5:56 PM 39.0 °F 33.4 °F 33.1 °F 79% 29.92 in 10.0 mi SE 8.1 mph - N/A   Overcast
6:56 PM 39.0 °F 33.4 °F 33.1 °F 79% 29.91 in 10.0 mi SE 8.1 mph - N/A   Overcast
7:37 PM 39.2 °F 34.2 °F 32.0 °F 75% 29.89 in 10.0 mi SE 6.9 mph - N/A   Overcast
7:52 PM 39.2 °F 33.6 °F 32.0 °F 75% 29.90 in 10.0 mi SE 8.1 mph - N/A   Overcast
7:56 PM 39.9 °F 33.9 °F 32.0 °F 73% 29.91 in 10.0 mi SE 9.2 mph - N/A   Overcast
8:33 PM 39.2 °F 34.2 °F 32.0 °F 75% 29.90 in 10.0 mi SSE 6.9 mph - N/A   Scattered Clouds
8:56 PM 39.0 °F 33.4 °F 33.1 °F 79% 29.92 in 10.0 mi SE 8.1 mph - N/A   Overcast
9:19 PM 39.2 °F 34.2 °F 33.8 °F 81% 29.90 in 10.0 mi SSE 6.9 mph - N/A   Overcast
9:50 PM 39.2 °F 32.5 °F 33.8 °F 81% 29.90 in 10.0 mi SSE 10.4 mph - N/A   Overcast
9:56 PM 39.0 °F 31.8 °F 33.1 °F 79% 29.92 in 10.0 mi SSE 11.5 mph - N/A   Overcast
10:56 PM 39.0 °F 32.3 °F 32.0 °F 76% 29.94 in 10.0 mi SSE 10.4 mph - N/A   Overcast
11:32 PM 37.4 °F 33.8 °F 32.0 °F 81% 29.95 in 10.0 mi SSE 4.6 mph - N/A   Overcast
11:56 PM 39.0 °F 34.0 °F 33.1 °F 79% 29.97 in 10.0 mi ESE 6.9 mph - N/A   Overcast